Tracking 29892 objects as of 21-Nov-2024
HD Live streaming from Space Station
objects crossing your sky now

COSMOS 343

Track COSMOS 343 now!
10-day predictions
COSMOS 343 is classified as:


NORAD ID: 4390
Int'l Code: 1970-036H
Perigee: 1,381.8 km
Apogee: 1,474.7 km
Inclination: 74.0 °
Period: 114.2 minutes
Semi major axis: 7799 km
RCS: 0.751 m2 (medium)
Launch date: April 25, 1970
Source: Commonwealth of Independent States (former USSR) (CIS)
Launch site: PLESETSK MISSILE AND SPACE COMPLEX (PKMTR)
Your satellite tracking list
Your tracking list is empty




NASA's NSSDC Master Catalog

Two Line Element Set (TLE):
1 04390U 70036H   24325.87715559 -.00000020  00000-0 -20192-4 0  9997
2 04390  74.0257 117.1571 0059595 158.0209 356.5358 12.60446872510858
Source of the keplerian elements: AFSPC